Location: Ancona
(43.6330°N, 13.5000°E)
Time: 06:31:51
(UTC+01:00)

ISS - Visible Passes

Search period start: 31 October 2020 00:00
Search period end: 10 November 2020 00:00
Orbit: 417 x 420 km, 51.6° (Epoch: 30 October)

Date Brightness Start Highest point End Pass type
(mag) Time Alt. Az. Time Alt. Az. Time Alt. Az.
31 Oct -1.4 04:24:55 19° NNE 04:24:55 19° NNE 04:26:13 10° NE visible
31 Oct -1.9 05:58:08 10° NW 06:00:44 20° N 06:03:20 10° NE visible
01 Nov -2.0 05:12:05 19° NNW 05:12:46 20° N 05:15:21 10° NE visible
02 Nov -1.2 04:26:17 16° NNE 04:26:17 16° NNE 04:27:28 10° NE visible
02 Nov -2.1 05:59:31 10° NW 06:02:21 24° NNE 06:05:11 10° ENE visible
03 Nov -1.9 05:13:25 19° NNW 05:14:24 22° N 05:17:05 10° ENE visible
04 Nov -1.2 04:27:37 17° NNE 04:27:37 17° NNE 04:29:02 10° NE visible
04 Nov -2.7 06:00:41 10° NW 06:03:51 38° NNE 06:07:02 10° E visible
05 Nov -2.3 05:14:48 23° NNW 05:15:58 29° NNE 05:18:59 10° E visible
06 Nov -1.4 04:29:03 21° NE 04:29:03 21° NE 04:30:53 10° ENE visible
06 Nov -3.7 06:02:00 11° WNW 06:05:13 82° NNE 06:08:34 10° ESE visible
07 Nov -3.2 05:16:19 35° NNW 05:17:25 53° NNE 05:20:42 10° ESE visible
08 Nov -1.8 04:30:41 28° ENE 04:30:41 28° ENE 04:32:43 10° E visible
08 Nov -3.0 06:03:38 13° WNW 06:06:21 37° SW 06:09:29 10° SSE visible
09 Nov -3.7 05:18:04 51° W 05:18:40 63° SW 05:21:59 10° SE visible
